Change the Weather History Date:

Saturday, November 24, 2012

  Actual Average Record
Temperature  
Mean Temperature 49 °F -  
Max Temperature 59 °F 47 °F 69 °F (1998)
Min Temperature 37 °F 24 °F 10 °F (2007)
Degree Days  
Heating Degree Days 16    
Moisture  
Dew Point 10 °F    
Average Humidity 22    
Maximum Humidity 36    
Minimum Humidity 14    
Precipitation  
Precipitation 0.00 in - - ()
Sea Level Pressure  
Sea Level Pressure 29.98 in    
Wind  
Wind Speed 10 mph (SW)    
Max Wind Speed 18 mph    
Max Gust Speed -    
Visibility 10 miles    
Events      
Averages and records for this station are not official NWS values.
T = Trace of Precipitation, MM = Missing Value Source: NWS Daily Summary

Daily Weather History Graph

Daily Weather History Graph

Search for Another Location

Airport or City:

Trip Planner

Search our weather history database for the weather conditions in past years. The results will help you decide how hot, cold, wet, or windy it might be!

Date:

Astronomy

Nov. 24, 2012 Rise Set
Actual Time 6:54 AM MST 4:37 PM MST
Civil Twilight 6:24 AM MST 5:06 PM MST
Nautical Twilight 5:51 AM MST 5:40 PM MST
Astronomical Twilight 5:19 AM MST 6:12 PM MST
Moon 2:23 PM MST (11/24) 3:13 AM MST (11/24)
Length of Visible Light 10h 42m
Length of Day
9h 43m
Waxing Gibbous, 87% of the Moon is Illuminated
Nov 24
Waxing Gibbous
Nov 28
Full
Dec 6
Last Quarter
Dec 13
New
Dec 19
First Quarter

Hourly Weather History & Observations

Time (MST) Temp. Windchill Dew Point Humidity Pressure Visibility Wind Dir Wind Speed Gust Speed Precip Events Conditions
12:55 AM 39.2 °F 32.0 °F 10.4 °F 31% 30.14 in 10.0 mi SSW 11.5 mph - N/A   Mostly Cloudy
1:55 AM 39.2 °F 33.6 °F 10.4 °F 31% 30.12 in 10.0 mi South 8.1 mph - N/A   Mostly Cloudy
2:55 AM 39.2 °F 32.5 °F 10.4 °F 31% 30.09 in 10.0 mi South 10.4 mph - N/A   Mostly Cloudy
3:55 AM 41.0 °F 35.8 °F 10.4 °F 29% 30.06 in 10.0 mi South 8.1 mph - N/A   Mostly Cloudy
4:55 AM 42.8 °F 37.0 °F 8.6 °F 25% 30.08 in 10.0 mi SSW 10.4 mph - N/A   Mostly Cloudy
5:55 AM 41.0 °F 32.8 °F 6.8 °F 24% 30.09 in 10.0 mi SSW 16.1 mph - N/A   Mostly Cloudy
6:55 AM 44.6 °F 38.8 °F 6.8 °F 21% 30.07 in 70.0 mi South 11.5 mph - N/A   Mostly Cloudy
7:55 AM 46.4 °F 40.1 °F 8.6 °F 22% 30.05 in 70.0 mi South 15.0 mph - N/A   Mostly Cloudy
8:55 AM 50.0 °F - 10.4 °F 20% 30.04 in 70.0 mi SSW 10.4 mph - N/A   Mostly Cloudy
9:55 AM 53.6 °F - 10.4 °F 18% 30.02 in 70.0 mi SSW 11.5 mph - N/A   Mostly Cloudy
10:55 AM 57.2 °F - 10.4 °F 16% 29.98 in 70.0 mi SW 10.4 mph - N/A   Mostly Cloudy
11:55 AM 59.0 °F - 8.6 °F 14% 29.95 in 70.0 mi WSW 11.5 mph - N/A   Mostly Cloudy
12:55 PM 57.2 °F - 8.6 °F 14% 29.94 in 70.0 mi WSW 9.2 mph - N/A   Mostly Cloudy
1:55 PM 57.2 °F - 8.6 °F 14% 29.91 in 70.0 mi WSW 5.8 mph - N/A   Mostly Cloudy
2:55 PM 55.4 °F - 10.4 °F 17% 29.89 in 70.0 mi SW 4.6 mph - N/A   Mostly Cloudy
3:55 PM 53.6 °F - 10.4 °F 18% 29.91 in 70.0 mi Calm Calm - N/A   Mostly Cloudy
4:55 PM 57.2 °F - 10.4 °F 16% 29.88 in 70.0 mi WNW 18.4 mph - N/A   Mostly Cloudy
5:55 PM 57.2 °F - 12.2 °F 17% 29.90 in 10.0 mi NW 16.1 mph - N/A   Mostly Cloudy
6:55 PM 55.4 °F - 12.2 °F 18% 29.90 in 10.0 mi NW 8.1 mph - N/A   Mostly Cloudy
7:55 PM 53.6 °F - 10.4 °F 18% 29.90 in 10.0 mi NW 3.5 mph - N/A   Mostly Cloudy
8:55 PM 51.8 °F - 12.2 °F 21% 29.89 in 10.0 mi NNW 2.3 mph - N/A   Scattered Clouds
9:55 PM 44.6 °F 40.2 °F 12.2 °F 27% 29.91 in 10.0 mi West 8.1 mph - N/A   Scattered Clouds
10:55 PM 46.4 °F 44.3 °F 10.4 °F 23% 29.89 in 10.0 mi WSW 4.6 mph - N/A   Partly Cloudy
11:55 PM 37.4 °F 29.8 °F 12.2 °F 36% 29.90 in 10.0 mi South 11.5 mph - N/A   Partly Cloudy